Weather History for Paraburdoo Airport, WA

Change the Weather History Date:

Friday, March 7, 2014

  Actual Average Record
Temperature  
Mean Temperature 91 °F -  
Max Temperature 105 °F - - ()
Min Temperature 77 °F - - ()
Cooling Degree Days 26    
Growing Degree Days 41 (Base 50)    
Moisture  
Dew Point 39 °F    
Average Humidity 16    
Maximum Humidity 29    
Minimum Humidity 8    
Precipitation  
Precipitation 0.00 in - - ()
Sea Level Pressure  
Sea Level Pressure 29.90 in    
Wind  
Wind Speed 8 mph ()    
Max Wind Speed 13 mph    
Max Gust Speed -    
Visibility 6.2 miles    
Events      
T = Trace of Precipitation, MM = Missing Value Source: Averaged Metar Reports

Daily Weather History Graph

Daily Weather History Graph

Search for Another Location

Airport:

Trip Planner

Search our weather history database for the weather conditions in past years. The results will help you decide how hot, cold, wet, or windy it might be!

Date:

Astronomy

Mar. 07, 2014 Rise Set
Actual Time 6:07 AM AWST 6:32 PM AWST
Civil Twilight 5:44 AM AWST 6:55 PM AWST
Nautical Twilight 5:18 AM AWST 7:21 PM AWST
Astronomical Twilight 4:51 AM AWST 7:48 PM AWST
Moon 11:37 AM AWST (3/7) 10:54 PM AWST (3/7)
Length of Visible Light 13h 10m
Length of Day
12h 25m
Waxing Crescent, 36% of the Moon is Illuminated
Mar 7
Waxing Crescent
Mar 8
First Quarter
Mar 17
Full
Mar 24
Last Quarter
Mar 31
New

Hourly Weather History & Observations

Time (AWST) Temp. Dew Point Humidity Pressure Visibility Wind Dir Wind Speed Gust Speed Precip Events Conditions
12:00 AM 86.0 °F 37.4 °F 18% 29.89 in 6.2 mi ENE 6.9 mph - N/A   Unknown
1:00 AM 89.6 °F 39.2 °F 17% 29.89 in 6.2 mi ENE 11.5 mph - N/A   Unknown
2:00 AM 86.0 °F 41.0 °F 20% 29.89 in 6.2 mi ENE 9.2 mph - N/A   Unknown
3:00 AM 84.2 °F 42.8 °F 23% 29.89 in 6.2 mi NW 5.8 mph - N/A   Unknown
4:00 AM 80.6 °F 42.8 °F 26% 29.89 in 6.2 mi ENE 8.1 mph - N/A   Unknown
5:00 AM 78.8 °F 42.8 °F 28% 29.92 in 6.2 mi East 5.8 mph - N/A   Unknown
6:00 AM 77.0 °F 42.8 °F 29% 29.92 in 6.2 mi East 8.1 mph - N/A   Unknown
7:00 AM 84.2 °F 44.6 °F 25% 29.95 in 6.2 mi East 8.1 mph - N/A   Unknown
8:00 AM 93.2 °F 42.8 °F 17% 29.95 in 6.2 mi ENE 10.4 mph - N/A   Unknown
9:00 AM 95.0 °F 41.0 °F 15% 29.95 in 6.2 mi NE 12.7 mph - N/A   Unknown
10:00 AM 98.6 °F 41.0 °F 14% 29.95 in 6.2 mi ENE 11.5 mph - N/A   Unknown
11:00 AM 102.2 °F 41.0 °F 12% 29.95 in 6.2 mi NNE 10.4 mph - N/A   Unknown
12:00 PM 104.0 °F 37.4 °F 10% 29.92 in 6.2 mi North 9.2 mph - N/A   Unknown
1:00 PM 104.0 °F 35.6 °F 9% 29.89 in 6.2 mi NNE 8.1 mph - N/A   Unknown
2:00 PM 105.8 °F 35.6 °F 9% 29.86 in 6.2 mi East 6.9 mph - N/A   Unknown
3:00 PM 105.8 °F 32.0 °F 8% 29.83 in 6.2 mi ENE 9.2 mph - N/A   Unknown
4:00 PM 104.0 °F 32.0 °F 8% 29.83 in 6.2 mi SE 8.1 mph - N/A   Unknown
5:00 PM 104.0 °F 33.8 °F 9% 29.83 in 6.2 mi SE 9.2 mph - N/A   Unknown
6:00 PM 102.2 °F 35.6 °F 10% 29.83 in 6.2 mi East 5.8 mph - N/A   Unknown
7:00 PM 98.6 °F 35.6 °F 11% 29.86 in 6.2 mi ESE 8.1 mph - N/A   Unknown
8:00 PM 95.0 °F 35.6 °F 12% 29.89 in 6.2 mi ESE 6.9 mph - N/A   Unknown
9:00 PM 93.2 °F 37.4 °F 14% 29.92 in 6.2 mi ENE 6.9 mph - N/A   Unknown
10:00 PM 93.2 °F 42.8 °F 17% 29.92 in 6.2 mi ENE 9.2 mph - N/A   Unknown
11:00 PM 91.4 °F 46.4 °F 21% 29.89 in 6.2 mi ENE 10.4 mph - N/A   Unknown